period_start,C,m1,H,J0,J1,J2,J3,J4,J5,JA,JB,JC,JD,JJ,JK,JN,#
2018-06-02 00:02:59,0.03,0.46,0.00,23.67,27.70,30.81,13.87,46.80,1011.98,2025.02,3223.21,2953.58,3400.81,599.96,591.86,46.88,0000 0000 0000 0000 000000
2018-06-02 00:08:01,0.02,0.46,0.00,23.68,27.70,30.82,13.95,46.89,1012.10,2025.04,3223.04,2953.33,3400.54,600.22,592.17,46.93,0000 0000 0000 0000 000000
2018-06-02 00:13:02,0.00,0.47,0.00,23.68,27.69,30.80,13.89,46.89,1012.22,2025.02,3223.00,2953.06,3400.10,600.01,592.10,46.98,0000 0000 0000 0000 000000
2018-06-02 00:18:04,0.01,0.47,0.00,23.69,27.67,30.81,13.94,46.85,1012.22,2025.08,3222.98,2953.01,3400.01,600.32,592.31,47.03,0000 0000 0000 0000 000000
2018-06-02 00:23:05,0.00,0.47,0.00,23.69,27.67,30.79,13.83,46.92,1012.22,2025.10,3222.75,2953.00,3400.00,599.97,592.06,47.08,0000 0000 0000 0000 000000
2018-06-02 00:28:06,0.00,0.47,0.00,23.69,27.67,30.79,13.93,46.87,1012.22,2025.09,3222.21,2953.00,3400.00,599.96,592.03,47.13,0000 0000 0000 0000 000000
2018-06-02 00:33:08,0.02,0.47,0.00,23.69,27.65,30.79,13.85,46.93,1012.34,2025.23,3222.01,2952.98,3399.94,599.98,592.14,47.18,0000 0000 0000 0000 000000
2018-06-02 00:38:09,0.02,0.47,0.00,23.70,27.65,30.78,13.85,46.95,1012.58,2025.34,3222.00,2952.94,3399.73,599.83,592.13,47.23,0000 0000 0000 0000 000000
2018-06-02 00:43:10,0.03,0.47,0.00,23.70,27.65,30.78,13.84,46.89,1012.68,2025.46,3221.95,2952.68,3399.23,599.93,592.26,47.28,0000 0000 0000 0000 000000
2018-06-02 00:48:12,0.02,0.47,0.00,23.71,27.65,30.76,13.88,46.91,1012.70,2025.42,3221.43,2952.10,3399.01,599.93,592.30,47.33,0000 0000 0000 0000 000000
2018-06-02 00:53:13,0.02,0.47,0.00,23.72,27.64,30.78,13.92,46.92,1012.71,2025.51,3221.07,2952.02,3399.00,600.22,592.56,47.38,0000 0000 0000 0000 000000
2018-06-02 00:58:14,-0.01,0.47,0.00,23.73,27.63,30.79,13.89,46.95,1012.71,2025.50,3221.00,2952.00,3398.98,600.09,592.39,47.43,0000 0000 0000 0000 000000
2018-06-02 01:03:16,0.02,0.47,0.00,23.73,27.62,30.76,13.89,46.94,1012.74,2025.62,3220.94,2951.99,3398.83,600.07,592.36,47.48,0000 0000 0000 0000 000000
2018-06-02 01:08:17,0.02,0.47,0.00,23.74,27.62,30.77,13.84,46.94,1012.91,2025.78,3220.82,2951.97,3398.52,599.76,591.98,47.53,0000 0000 0000 0000 000000
2018-06-02 01:13:18,0.01,0.47,0.00,23.75,27.62,30.75,13.85,46.90,1013.11,2025.69,3220.15,2951.82,3398.05,600.17,592.58,47.58,0000 0000 0000 0000 000000
2018-06-02 01:18:20,0.02,0.48,0.00,23.75,27.62,30.75,13.92,46.91,1013.16,2025.77,3220.00,2951.35,3398.00,599.95,592.54,47.63,0000 0000 0000 0000 000000
2018-06-02 01:23:21,-0.01,0.48,0.00,23.76,27.62,30.75,13.89,46.85,1013.19,2025.73,3220.00,2951.15,3398.00,599.86,592.37,47.68,0000 0000 0000 0000 000000
2018-06-02 01:28:22,-0.01,0.47,0.00,23.77,27.62,30.75,13.91,46.94,1013.20,2025.60,3219.86,2951.01,3397.97,600.16,592.83,47.74,0000 0000 0000 0000 000000
2018-06-02 01:33:23,0.03,0.48,0.00,23.78,27.62,30.76,13.96,47.00,1013.21,2025.72,3219.41,2951.00,3397.87,599.97,592.48,47.79,0000 0000 0000 0000 000000
2018-06-02 01:38:25,0.02,0.48,0.00,23.79,27.62,30.76,13.83,46.91,1013.24,2025.84,3219.04,2950.98,3397.34,600.04,592.55,47.84,0000 0000 0000 0000 000000
2018-06-02 01:43:27,-0.01,0.48,0.00,23.79,27.62,30.76,13.87,46.90,1013.40,2025.77,3219.00,2950.95,3397.04,599.63,592.19,47.89,0000 0000 0000 0000 000000
2018-06-02 01:48:28,0.01,0.48,0.00,23.80,27.62,30.76,13.94,46.92,1013.63,2025.78,3218.99,2950.84,3397.00,600.26,592.99,47.94,0000 0000 0000 0000 000000
2018-06-02 01:53:29,0.01,0.48,0.00,23.80,27.62,30.76,13.92,46.88,1013.68,2025.72,3218.89,2950.33,3397.00,600.28,593.03,47.99,0000 0000 0000 0000 000000
2018-06-02 01:58:31,0.02,0.48,0.00,23.82,27.62,30.74,13.89,46.88,1013.69,2025.79,3218.28,2950.05,3396.96,600.01,592.74,48.04,0000 0000 0000 0000 000000
2018-06-02 02:03:32,-0.01,0.48,0.00,23.82,27.62,30.72,13.80,46.86,1013.70,2025.63,3218.04,2950.01,3396.61,599.65,592.22,48.09,0000 0000 0000 0000 000000
2018-06-02 02:08:33,0.02,0.48,0.00,23.83,27.62,30.74,13.88,46.92,1013.71,2025.61,3218.00,2950.00,3396.12,600.17,592.96,48.14,0000 0000 0000 0000 000000
2018-06-02 02:13:34,0.00,0.48,0.00,23.85,27.62,30.71,13.86,46.80,1013.81,2025.78,3217.98,2949.99,3396.04,599.80,592.67,48.19,0000 0000 0000 0000 000000
2018-06-02 02:18:35,-0.02,0.48,0.00,23.87,27.62,30.74,13.86,46.89,1013.98,2025.52,3217.85,2949.96,3396.00,600.10,592.81,48.24,0000 0000 0000 0000 000000
2018-06-02 02:23:37,0.01,0.48,0.00,23.87,27.62,30.77,13.83,46.87,1014.02,2025.35,3217.20,2949.50,3395.99,599.85,592.63,48.29,0000 0000 0000 0000 000000
2018-06-02 02:28:38,0.02,0.48,0.00,23.93,27.63,30.73,13.83,46.90,1014.10,2025.35,3217.02,2949.13,3395.93,599.65,592.36,48.34,0000 0000 0000 0000 000000
2018-06-02 02:33:39,0.00,0.48,0.00,23.96,27.64,30.76,13.85,46.80,1014.14,2025.44,3217.00,2949.04,3395.68,600.08,592.72,48.39,0000 0000 0000 0000 000000
2018-06-02 02:38:40,-0.00,0.48,0.00,23.97,27.65,30.75,13.86,46.79,1014.17,2025.23,3217.00,2949.00,3395.12,600.00,592.65,48.44,0000 0000 0000 0000 000000
2018-06-02 02:43:41,-0.00,0.48,0.00,23.99,27.65,30.74,13.79,46.83,1014.17,2025.19,3216.92,2949.00,3395.02,599.70,592.35,48.49,0000 0000 0000 0000 000000
2018-06-02 02:48:42,0.00,0.48,0.00,24.01,27.65,30.73,13.90,46.70,1014.19,2025.10,3216.35,2948.98,3395.00,600.28,592.90,48.54,0000 0000 0000 0000 000000
2018-06-02 02:53:43,0.79,0.50,0.00,24.02,27.66,30.75,13.90,46.93,1014.20,2025.05,3203.30,2942.83,3388.33,599.91,592.32,48.60,0000 0000 0000 0000 000000
2018-06-02 02:58:44,0.08,0.52,0.00,24.04,27.67,30.76,13.87,46.81,1014.39,2025.02,3192.97,2938.06,3383.06,599.56,592.19,48.65,0000 0000 0000 0000 000000
2018-06-02 03:03:45,0.01,0.53,0.00,24.05,27.67,30.79,13.83,46.87,1014.63,2025.01,3192.30,2938.00,3382.99,599.78,592.60,48.70,0000 0000 0000 0000 000000
2018-06-02 03:08:47,0.01,0.53,0.00,24.08,27.70,30.77,13.85,46.77,1014.66,2025.04,3192.02,2937.99,3382.97,600.01,592.73,48.75,0000 0000 0000 0000 000000
2018-06-02 03:13:48,0.00,0.53,0.00,24.09,27.70,30.76,13.89,46.77,1014.66,2025.01,3192.00,2937.93,3382.71,600.11,592.81,48.80,0000 0000 0000 0000 000000
2018-06-02 03:18:50,0.02,0.53,0.00,24.08,27.71,30.79,13.89,46.74,1014.68,2025.00,3191.98,2937.50,3382.07,600.20,593.01,48.85,0000 0000 0000 0000 000000
2018-06-02 03:23:51,0.01,0.53,0.00,24.08,27.72,30.81,13.89,46.75,1014.67,2025.00,3191.83,2937.07,3382.01,600.16,592.90,48.90,0000 0000 0000 0000 000000
2018-06-02 03:28:52,0.01,0.53,0.00,24.09,27.74,30.83,13.86,46.79,1014.70,2025.00,3191.35,2937.01,3382.00,600.08,592.80,48.95,0000 0000 0000 0000 000000
2018-06-02 03:33:53,0.00,0.53,0.00,24.10,27.75,30.86,13.83,46.87,1014.73,2025.00,3191.04,2937.00,3381.98,599.65,592.40,49.00,0000 0000 0000 0000 000000
2018-06-02 03:38:55,0.00,0.53,0.00,24.12,27.76,30.86,13.83,46.76,1014.78,2025.00,3191.01,2937.00,3381.93,599.27,592.02,49.05,0000 0000 0000 0000 000000
2018-06-02 03:43:56,0.01,0.53,0.00,24.12,27.77,30.85,13.87,46.82,1014.97,2025.00,3191.00,2936.98,3381.39,600.11,592.90,49.10,0000 0000 0000 0000 000000
2018-06-02 03:48:57,0.00,0.53,0.00,24.12,27.78,30.90,13.87,46.75,1015.10,2024.99,3190.96,2936.94,3381.07,599.80,592.74,49.15,0000 0000 0000 0000 000000
2018-06-02 03:53:59,0.00,0.53,0.00,24.14,27.80,30.89,13.85,46.77,1015.14,2024.99,3190.77,2936.86,3381.03,599.74,592.57,49.20,0000 0000 0000 0000 000000
2018-06-02 03:59:00,0.02,0.53,0.00,24.15,27.80,30.90,13.84,46.72,1015.14,2024.99,3190.31,2936.50,3381.00,600.15,593.01,49.25,0000 0000 0000 0000 000000
2018-06-02 04:04:01,0.01,0.53,0.00,24.17,27.82,30.94,13.93,46.78,1015.15,2024.99,3190.03,2936.09,3381.00,600.22,593.04,49.30,0000 0000 0000 0000 000000
2018-06-02 04:09:03,0.00,0.53,0.00,24.19,27.82,30.94,13.85,46.63,1015.15,2024.99,3190.00,2936.04,3380.98,599.80,592.51,49.35,0000 0000 0000 0000 000000
2018-06-02 04:14:04,0.00,0.53,0.00,24.20,27.85,30.95,13.89,46.71,1015.16,2024.99,3189.98,2936.00,3380.75,599.99,592.86,49.40,0000 0000 0000 0000 000000
2018-06-02 04:19:06,0.01,0.53,0.00,24.22,27.85,30.92,13.85,46.79,1015.22,2024.95,3189.57,2935.99,3380.08,600.06,592.84,49.45,0000 0000 0000 0000 000000
2018-06-02 04:24:07,0.01,0.53,0.00,24.22,27.87,30.93,13.81,46.79,1015.36,2024.89,3189.06,2935.73,3380.00,599.99,592.86,49.50,0000 0000 0000 0000 000000
2018-06-02 04:29:08,-0.00,0.53,0.00,24.22,27.87,30.95,13.86,46.88,1015.31,2024.73,3189.00,2935.25,3379.99,599.79,592.65,49.56,0000 0000 0000 0000 000000
2018-06-02 04:34:10,0.00,0.53,0.00,24.24,27.89,30.97,13.91,46.74,1015.46,2024.75,3188.99,2935.05,3379.93,600.13,593.20,49.61,0000 0000 0000 0000 000000
2018-06-02 04:39:11,-0.03,0.53,0.00,24.25,27.90,31.00,13.77,46.74,1015.63,2024.30,3188.89,2935.00,3379.51,599.65,592.63,49.66,0000 0000 0000 0000 000000
2018-06-02 04:44:13,0.00,0.53,0.00,24.26,27.90,31.02,13.96,46.92,1015.64,2024.15,3188.50,2935.00,3379.10,599.88,592.82,49.71,0000 0000 0000 0000 000000
2018-06-02 04:49:14,0.00,0.53,0.00,24.27,27.92,31.01,13.88,46.87,1015.64,2024.08,3188.10,2934.98,3379.01,600.11,593.11,49.76,0000 0000 0000 0000 000000
2018-06-02 04:54:15,-0.00,0.53,0.00,24.28,27.92,31.01,13.87,46.88,1015.64,2024.04,3188.02,2934.87,3379.00,600.12,592.94,49.81,0000 0000 0000 0000 000000
2018-06-02 04:59:16,0.02,0.53,0.00,24.30,27.94,31.02,13.87,46.76,1015.65,2024.02,3187.99,2934.31,3378.97,600.23,593.06,49.86,0000 0000 0000 0000 000000
2018-06-02 05:04:17,0.01,0.53,0.00,24.30,27.95,31.06,13.80,46.73,1015.66,2024.01,3187.86,2934.04,3378.62,599.53,592.38,49.91,0000 0000 0000 0000 000000
2018-06-02 05:09:18,0.01,0.53,0.00,24.32,27.95,31.06,13.91,46.67,1015.66,2024.00,3187.14,2934.00,3378.06,600.12,592.95,49.96,0000 0000 0000 0000 000000
2018-06-02 05:14:20,0.00,0.53,0.00,24.32,27.97,31.06,13.85,46.77,1015.83,2024.00,3186.99,2933.96,3378.00,600.05,592.88,50.01,0000 0000 0000 0000 000000
2018-06-02 05:19:21,0.00,0.53,0.00,24.34,27.97,31.10,13.90,46.81,1016.06,2024.00,3186.96,2933.82,3377.96,600.01,593.09,50.06,0000 0000 0000 0000 000000
2018-06-02 05:24:22,0.03,0.54,0.00,24.35,28.00,31.12,13.87,46.73,1016.11,2024.00,3186.60,2933.26,3377.64,600.00,593.04,50.11,0000 0000 0000 0000 000000
2018-06-02 05:29:24,0.02,0.54,0.00,24.36,28.00,31.11,13.86,46.79,1016.11,2024.00,3186.08,2933.03,3377.07,600.15,593.17,50.16,0000 0000 0000 0000 000000
2018-06-02 05:34:25,0.00,0.54,0.00,24.37,28.01,31.12,13.87,46.81,1016.13,2023.99,3186.01,2933.00,3377.00,599.80,592.68,50.21,0000 0000 0000 0000 000000
2018-06-02 05:39:26,0.00,0.54,0.00,24.39,28.02,31.11,13.95,46.81,1016.13,2023.98,3186.00,2933.00,3377.00,600.30,593.27,50.26,0000 0000 0000 0000 000000
2018-06-02 05:44:27,0.00,0.54,0.00,24.45,28.03,31.11,13.82,46.83,1016.13,2023.99,3185.98,2932.98,3377.00,599.61,592.51,50.31,0000 0000 0000 0000 000000
2018-06-02 05:49:29,0.01,0.54,0.00,24.48,28.05,31.11,13.84,46.85,1016.13,2023.98,3185.54,2932.88,3376.88,599.80,592.56,50.36,0000 0000 0000 0000 000000
2018-06-02 05:54:30,0.03,0.54,0.00,24.51,28.05,31.09,13.86,46.76,1016.18,2023.98,3185.10,2932.29,3376.24,600.22,592.92,50.41,0000 0000 0000 0000 000000
2018-06-02 05:59:31,0.00,0.54,0.00,24.53,28.07,31.11,13.84,46.79,1016.33,2023.97,3185.01,2932.02,3376.02,600.02,592.79,50.47,0000 0000 0000 0000 000000
2018-06-02 06:04:32,-0.00,0.54,0.00,24.55,28.07,31.09,13.84,46.76,1016.50,2023.94,3184.97,2932.00,3376.00,599.87,592.86,50.52,0000 0000 0000 0000 000000
2018-06-02 06:09:34,0.01,0.54,0.00,24.55,28.10,31.13,13.94,46.71,1016.61,2023.92,3184.69,2931.99,3375.98,600.30,593.34,50.57,0000 0000 0000 0000 000000
2018-06-02 06:14:35,0.00,0.54,0.00,24.57,28.10,31.15,13.90,46.73,1016.63,2023.87,3184.15,2931.96,3375.75,600.05,592.87,50.62,0000 0000 0000 0000 000000
2018-06-02 06:19:36,0.37,0.55,0.00,24.58,28.12,31.13,13.90,46.80,1016.63,2023.32,3176.50,2928.09,3371.33,599.97,592.84,50.67,0000 0000 0000 0000 000000
2018-06-02 06:24:37,0.42,0.58,0.00,24.58,28.13,31.13,13.90,46.83,1016.65,2023.04,3162.71,2921.36,3364.27,600.37,593.24,50.72,0000 0000 0000 0000 000000
2018-06-02 06:29:39,0.01,0.58,0.00,24.58,28.15,31.15,13.89,46.83,1016.72,2023.01,3161.64,2921.00,3363.35,599.82,592.80,50.77,0000 0000 0000 0000 000000
2018-06-02 06:34:40,0.01,0.58,0.00,24.60,28.15,31.21,13.87,46.78,1016.91,2023.01,3161.16,2920.99,3363.12,599.99,593.06,50.82,0000 0000 0000 0000 000000
2018-06-02 06:39:41,0.00,0.58,0.00,24.61,28.17,31.21,13.92,46.74,1017.00,2023.01,3161.01,2920.85,3363.01,600.08,593.12,50.87,0000 0000 0000 0000 000000
2018-06-02 06:44:42,0.01,0.58,0.00,24.62,28.17,31.23,13.84,46.68,1017.04,2023.00,3161.00,2920.47,3363.00,599.96,592.94,50.92,0000 0000 0000 0000 000000
2018-06-02 06:49:43,0.00,0.58,0.00,24.62,28.19,31.26,13.85,46.76,1017.07,2023.00,3160.97,2920.10,3362.97,600.26,593.20,50.97,0000 0000 0000 0000 000000
2018-06-02 06:54:45,-0.00,0.58,0.00,24.60,28.20,31.26,13.87,46.76,1017.09,2023.00,3160.97,2920.05,3362.95,600.01,593.15,51.02,0000 0000 0000 0000 000000
2018-06-02 06:59:46,0.01,0.58,0.00,24.60,28.21,31.30,13.83,46.80,1017.10,2022.99,3160.63,2920.02,3362.77,600.01,593.09,51.07,0000 0000 0000 0000 000000
2018-06-02 07:04:47,0.01,0.58,0.00,24.60,28.22,31.32,13.83,46.79,1017.10,2022.99,3160.12,2920.00,3362.33,599.74,592.85,51.12,0000 0000 0000 0000 000000
2018-06-02 07:09:49,0.00,0.59,0.00,24.61,28.24,31.36,13.78,46.73,1017.10,2022.99,3160.02,2920.00,3362.09,599.67,592.77,51.17,0000 0000 0000 0000 000000
2018-06-02 07:14:50,0.00,0.59,0.00,24.60,28.25,31.37,13.90,46.78,1017.11,2022.98,3160.00,2919.99,3362.01,599.79,592.70,51.22,0000 0000 0000 0000 000000
2018-06-02 07:19:51,0.00,0.59,0.00,24.61,28.25,31.38,13.91,46.72,1017.12,2022.96,3159.99,2919.95,3362.00,600.07,593.16,51.27,0000 0000 0000 0000 000000
2018-06-02 07:24:52,0.01,0.59,0.00,24.61,28.27,31.38,13.86,46.76,1017.14,2022.97,3159.94,2919.73,3361.99,599.94,593.00,51.32,0000 0000 0000 0000 000000
2018-06-02 07:29:54,0.02,0.59,0.00,24.60,28.27,31.42,13.90,46.72,1017.22,2022.95,3159.22,2919.15,3361.83,599.84,593.14,51.37,0000 0000 0000 0000 000000
2018-06-02 07:34:55,0.00,0.59,0.00,24.60,28.29,31.43,13.94,46.63,1017.48,2022.91,3159.02,2919.03,3361.44,600.01,593.30,51.43,0000 0000 0000 0000 000000
2018-06-02 07:39:57,-0.00,0.59,0.00,24.60,28.30,31.42,13.87,46.72,1017.57,2022.83,3159.01,2919.02,3361.19,599.64,593.00,51.48,0000 0000 0000 0000 000000
2018-06-02 07:44:58,-0.00,0.59,0.00,24.61,28.30,31.45,13.99,46.64,1017.59,2022.66,3159.00,2919.00,3361.03,600.38,593.83,51.53,0000 0000 0000 0000 000000
2018-06-02 07:49:59,0.00,0.59,0.00,24.61,28.31,31.45,13.84,46.64,1017.59,2022.76,3158.97,2919.00,3361.00,599.76,593.08,51.58,0000 0000 0000 0000 000000
2018-06-02 07:55:00,0.00,0.59,0.00,24.62,28.32,31.46,13.84,46.55,1017.60,2022.82,3158.80,2918.98,3361.00,599.95,593.32,51.63,0000 0000 0000 0000 000000
2018-06-02 08:00:02,0.02,0.59,0.00,24.61,28.32,31.47,13.86,46.60,1017.60,2022.85,3158.40,2918.94,3361.00,599.84,593.23,51.68,0000 0000 0000 0000 000000
2018-06-02 08:05:03,-0.03,0.59,0.00,24.61,28.33,31.46,13.90,46.75,1017.59,2022.40,3158.05,2918.43,3360.83,600.13,593.44,51.73,0000 0000 0000 0000 000000
2018-06-02 08:10:04,-0.00,0.59,0.00,24.61,28.35,31.47,13.83,46.68,1017.60,2022.07,3158.00,2918.02,3360.09,599.67,592.91,51.78,0000 0000 0000 0000 000000
2018-06-02 08:15:05,0.01,0.59,0.00,24.62,28.35,31.48,13.80,46.54,1017.59,2022.06,3157.55,2918.00,3360.00,600.07,593.21,51.83,0000 0000 0000 0000 000000
2018-06-02 08:20:07,0.01,0.59,0.00,24.63,28.35,31.46,13.91,46.63,1017.60,2022.04,3157.03,2917.94,3359.88,600.28,593.58,51.88,0000 0000 0000 0000 000000
2018-06-02 08:25:08,0.02,0.59,0.00,24.65,28.35,31.47,13.93,46.70,1017.63,2022.02,3157.00,2917.45,3359.26,600.04,593.27,51.93,0000 0000 0000 0000 000000
2018-06-02 08:30:09,0.01,0.59,0.00,24.66,28.37,31.45,13.84,46.58,1017.62,2022.01,3156.99,2917.22,3359.10,600.14,593.46,51.98,0000 0000 0000 0000 000000
2018-06-02 08:35:11,0.02,0.59,0.00,24.67,28.37,31.45,13.97,46.63,1017.64,2022.00,3156.30,2917.00,3358.97,600.27,593.46,52.03,0000 0000 0000 0000 000000
2018-06-02 08:40:12,0.01,0.59,0.00,24.68,28.37,31.45,13.85,46.52,1017.63,2022.00,3156.00,2916.94,3358.36,599.91,592.96,52.08,0000 0000 0000 0000 000000
2018-06-02 08:45:13,0.01,0.59,0.00,24.70,28.38,31.47,13.92,46.67,1017.64,2022.00,3155.97,2916.70,3358.08,600.19,593.43,52.13,0000 0000 0000 0000 000000
2018-06-02 08:50:15,0.03,0.59,0.00,24.70,28.40,31.50,13.88,46.65,1017.66,2022.00,3155.27,2916.07,3358.00,599.98,593.09,52.18,0000 0000 0000 0000 000000
2018-06-02 08:55:16,0.00,0.59,0.00,24.71,28.40,31.52,13.93,46.62,1017.67,2022.01,3155.00,2916.00,3357.99,600.09,593.27,52.23,0000 0000 0000 0000 000000
2018-06-02 09:00:17,0.02,0.59,0.00,24.72,28.40,31.53,13.92,46.55,1017.78,2022.01,3154.33,2915.98,3357.57,600.22,593.42,52.28,0000 0000 0000 0000 000000
2018-06-02 09:05:19,0.01,0.60,0.00,24.73,28.42,31.50,13.94,46.62,1017.97,2022.01,3154.00,2915.79,3357.09,600.27,593.57,52.33,0000 0000 0000 0000 000000
2018-06-02 09:10:20,0.01,0.60,0.00,24.75,28.42,31.52,13.78,46.61,1018.08,2022.00,3153.99,2915.41,3357.00,599.86,593.29,52.39,0000 0000 0000 0000 000000
2018-06-02 09:15:21,0.00,0.60,0.00,24.74,28.42,31.54,13.87,46.58,1018.08,2022.00,3153.99,2915.19,3357.00,599.95,593.30,52.44,0000 0000 0000 0000 000000
2018-06-02 09:20:22,0.00,0.60,0.00,24.76,28.43,31.55,13.84,46.59,1018.08,2022.00,3153.96,2915.04,3357.00,599.89,593.33,52.49,0000 0000 0000 0000 000000
2018-06-02 09:25:23,0.00,0.60,0.00,24.76,28.45,31.55,13.82,46.48,1018.08,2021.99,3153.79,2915.01,3356.99,599.96,593.33,52.54,0000 0000 0000 0000 000000
2018-06-02 09:30:24,0.00,0.60,0.00,24.75,28.45,31.55,13.92,46.58,1018.10,2021.99,3153.52,2915.00,3356.95,600.18,593.57,52.59,0000 0000 0000 0000 000000
2018-06-02 09:35:25,0.00,0.60,0.00,24.75,28.45,31.57,13.85,46.58,1018.12,2021.98,3153.21,2915.00,3356.83,599.79,593.29,52.64,0000 0000 0000 0000 000000
2018-06-02 09:40:27,0.00,0.60,0.00,24.74,28.47,31.57,13.88,46.61,1018.11,2021.98,3153.03,2915.00,3356.61,600.03,593.49,52.69,0000 0000 0000 0000 000000
2018-06-02 09:45:28,0.01,0.60,0.00,24.73,28.47,31.59,13.89,46.74,1018.10,2021.97,3152.95,2914.83,3356.12,600.21,593.66,52.74,0000 0000 0000 0000 000000
2018-06-02 09:50:29,0.04,0.60,0.00,24.71,28.47,31.59,13.89,46.61,1018.11,2021.98,3152.05,2914.04,3355.60,600.13,593.71,52.79,0000 0000 0000 0000 000000
2018-06-02 09:55:31,0.02,0.60,0.00,24.70,28.47,31.62,13.88,46.68,1018.16,2021.98,3151.18,2913.86,3355.01,599.95,593.50,52.84,0000 0000 0000 0000 000000
2018-06-02 10:00:32,0.03,0.60,0.00,24.70,28.47,31.63,13.82,46.68,1018.36,2021.97,3150.89,2913.13,3354.73,599.81,593.54,52.89,0000 0000 0000 0000 000000
2018-06-02 10:05:33,0.03,0.61,0.00,24.68,28.48,31.62,13.80,46.54,1018.32,2021.96,3150.02,2912.80,3354.01,599.95,593.47,52.94,0000 0000 0000 0000 000000
2018-06-02 10:10:34,0.05,0.61,0.00,24.67,28.49,31.63,13.96,46.53,1018.22,2021.97,3149.07,2912.03,3353.14,599.96,593.60,52.99,0000 0000 0000 0000 000000
2018-06-02 10:15:35,0.05,0.61,0.00,24.67,28.50,31.63,13.98,46.61,1018.18,2021.97,3148.26,2911.40,3352.55,600.15,593.75,53.04,0000 0000 0000 0000 000000
2018-06-02 10:20:37,0.01,0.61,0.00,24.66,28.50,31.62,13.87,46.62,1018.10,2021.94,3147.86,2910.99,3352.01,599.89,593.42,53.09,0000 0000 0000 0000 000000
2018-06-02 10:25:37,0.01,0.61,0.00,24.65,28.50,31.64,13.89,46.62,1018.09,2021.94,3147.19,2910.82,3351.89,600.29,593.97,53.14,0000 0000 0000 0000 000000
2018-06-02 10:30:39,0.03,0.61,0.00,24.64,28.50,31.63,13.90,46.63,1018.11,2021.95,3147.00,2910.11,3351.18,600.13,593.71,53.19,0000 0000 0000 0000 000000
2018-06-02 10:35:40,0.00,0.61,0.00,24.62,28.50,31.63,13.92,46.74,1018.15,2021.96,3146.83,2910.00,3351.01,600.01,593.56,53.25,0000 0000 0000 0000 000000
2018-06-02 10:40:42,0.01,0.62,0.00,24.62,28.50,31.62,13.85,46.67,1018.19,2021.95,3146.40,2910.00,3351.00,599.80,593.58,53.30,0000 0000 0000 0000 000000
2018-06-02 10:45:43,0.00,0.62,0.00,24.62,28.50,31.62,13.84,46.58,1018.17,2021.98,3146.17,2910.00,3351.00,599.72,593.39,53.35,0000 0000 0000 0000 000000
2018-06-02 10:50:44,0.00,0.62,0.00,24.60,28.50,31.63,13.91,46.64,1018.33,2021.99,3146.01,2909.99,3350.95,599.96,593.72,53.40,0000 0000 0000 0000 000000
2018-06-02 10:55:46,-0.00,0.62,0.00,24.59,28.50,31.61,13.89,46.61,1018.32,2021.97,3146.00,2909.98,3350.94,600.10,593.90,53.45,0000 0000 0000 0000 000000
2018-06-02 11:00:47,0.00,0.62,0.00,24.58,28.49,31.63,13.89,46.59,1018.48,2021.96,3145.99,2909.97,3350.84,599.92,593.90,53.50,0000 0000 0000 0000 000000
2018-06-02 11:05:48,0.02,0.62,0.00,24.57,28.48,31.62,13.86,46.51,1018.49,2021.98,3145.93,2909.77,3350.33,600.00,594.00,53.55,0000 0000 0000 0000 000000
2018-06-02 11:10:50,0.02,0.62,0.00,24.57,28.47,31.60,13.81,46.58,1018.55,2021.96,3145.36,2909.18,3350.01,599.95,594.11,53.60,0000 0000 0000 0000 000000
2018-06-02 11:15:51,-0.00,0.62,0.00,24.57,28.47,31.61,13.84,46.52,1018.56,2021.94,3145.08,2909.08,3350.00,599.91,593.93,53.65,0000 0000 0000 0000 000000
2018-06-02 11:20:52,0.00,0.62,0.00,24.55,28.47,31.58,13.83,46.46,1018.56,2021.96,3145.03,2909.03,3350.00,599.71,593.93,53.70,0000 0000 0000 0000 000000
2018-06-02 11:25:54,0.00,0.62,0.00,24.54,28.47,31.58,13.91,46.50,1018.57,2021.97,3145.01,2909.01,3349.99,600.04,594.20,53.75,0000 0000 0000 0000 000000
2018-06-02 11:30:55,-0.00,0.62,0.00,24.53,28.45,31.60,13.96,46.52,1018.57,2021.96,3145.00,2909.01,3349.99,599.79,593.87,53.80,0000 0000 0000 0000 000000
2018-06-02 11:35:56,0.00,0.62,0.00,24.52,28.45,31.59,13.93,46.48,1018.57,2021.97,3144.99,2909.00,3349.96,600.20,594.28,53.85,0000 0000 0000 0000 000000
2018-06-02 11:40:58,0.00,0.62,0.00,24.50,28.45,31.58,13.90,46.66,1018.57,2021.95,3144.98,2909.00,3349.78,599.84,594.04,53.90,0000 0000 0000 0000 000000
2018-06-02 11:45:59,0.01,0.62,0.00,24.50,28.45,31.57,13.94,46.56,1018.57,2021.97,3144.74,2908.99,3349.26,600.12,594.29,53.95,0000 0000 0000 0000 000000
2018-06-02 11:51:00,0.00,0.62,0.00,24.50,28.43,31.59,13.87,46.50,1018.57,2021.98,3144.38,2908.99,3349.13,600.08,594.18,54.00,0000 0000 0000 0000 000000
2018-06-02 11:56:02,0.00,0.62,0.00,24.49,28.42,31.57,13.98,46.64,1018.57,2021.98,3144.09,2908.98,3349.03,600.16,594.32,54.05,0000 0000 0000 0000 000000
2018-06-02 12:01:03,0.00,0.62,0.00,24.47,28.42,31.55,13.93,46.65,1018.58,2021.99,3144.01,2908.96,3349.01,599.91,594.07,54.10,0000 0000 0000 0000 000000
2018-06-02 12:06:04,0.00,0.62,0.00,24.46,28.42,31.54,13.94,46.51,1018.58,2021.99,3144.00,2908.90,3349.00,600.11,594.28,54.15,0000 0000 0000 0000 000000
2018-06-02 12:11:05,0.01,0.62,0.00,24.45,28.41,31.54,13.87,46.54,1018.57,2021.99,3143.99,2908.59,3349.00,599.68,593.93,54.21,0000 0000 0000 0000 000000
2018-06-02 12:16:07,0.01,0.62,0.00,24.43,28.40,31.55,13.92,46.54,1018.58,2021.98,3143.90,2908.21,3348.98,599.90,594.32,54.26,0000 0000 0000 0000 000000
2018-06-02 12:21:08,0.01,0.62,0.00,24.43,28.40,31.53,13.94,46.63,1018.58,2021.98,3143.28,2908.04,3348.83,600.16,594.48,54.31,0000 0000 0000 0000 000000
2018-06-02 12:26:09,0.01,0.62,0.00,24.41,28.39,31.50,13.99,46.53,1018.57,2021.99,3143.01,2908.00,3348.31,599.98,594.35,54.36,0000 0000 0000 0000 000000
2018-06-02 12:31:10,0.00,0.62,0.00,24.40,28.37,31.51,13.89,46.58,1018.58,2021.99,3143.00,2908.01,3348.29,599.90,594.26,54.41,0000 0000 0000 0000 000000
2018-06-02 12:36:12,0.00,0.62,0.00,24.38,28.37,31.52,13.93,46.57,1018.58,2021.99,3143.00,2908.00,3348.03,600.10,594.38,54.46,0000 0000 0000 0000 000000
2018-06-02 12:41:13,0.00,0.62,0.00,24.37,28.36,31.48,13.90,46.59,1018.59,2021.99,3142.94,2907.99,3348.01,599.94,594.40,54.51,0000 0000 0000 0000 000000
2018-06-02 12:46:14,0.00,0.62,0.00,24.35,28.35,31.49,13.94,46.48,1018.63,2021.99,3142.89,2907.99,3348.00,600.05,594.56,54.56,0000 0000 0000 0000 000000
2018-06-02 12:51:15,0.00,0.62,0.00,24.35,28.35,31.48,13.87,46.49,1018.83,2021.99,3142.53,2907.99,3348.00,599.92,594.56,54.61,0000 0000 0000 0000 000000
2018-06-02 12:56:17,0.00,0.62,0.00,24.34,28.33,31.46,13.93,46.58,1019.00,2021.99,3142.21,2907.99,3348.00,600.20,594.98,54.66,0000 0000 0000 0000 000000